#timestamp,LO_Frequency,Hit,StdDev 
1629118815.6,286047003.7,P
1629118835.4,286047002.1,N
1629118855.2,286047002.0,N
1629118875.1,286047003.0,Y
1629118895.8,286047001.9,P
1629118915.7,286047001.8,P
1629118935.5,286047002.7,P
1629118955.4,286047000.5,N
1629118975.2,286046998.7,N
1629118995.0,286046996.5,N
1629118995.9,286046996.5,N
1629119015.8,286046999.5,N
1629119035.6,286046997.2,N
1629119055.5,286046995.1,N
1629119075.3,286046999.1,N
1629119095.1,286046996.6,N
1629119115.9,286046999.2,N
1629119135.7,286046998.4,N
1629119155.6,286046999.1,N
1629119175.4,286046998.4,N
1629119195.2,286046996.5,N
1629119215.1,286046999.2,N
1629119216.0,286046999.2,N
1629119235.8,286046997.9,N
1629119255.7,286046996.1,N
1629119275.5,286046996.3,N
1629119295.3,286046995.9,N
1629119315.2,286046993.8,N
1629119335.0,286046992.9,Y
1629119335.9,286046992.9,P
1629119355.8,286046993.5,N
1629119375.6,286046993.9,N
1629119395.4,286046993.5,Y
1629119415.3,286046999.9,P
1629119435.1,286046999.0,N
1629119455.9,286046997.7,N
1629119475.7,286046997.1,N
1629119495.5,286046997.5,N
1629119515.4,286046995.2,N
1629119535.2,286046999.1,N
1629119555.1,286046998.1,N
1629119556.0,286046998.1,N
1629119575.8,286046996.8,N
1629119595.7,286046997.3,N
1629119615.5,286046997.4,N
1629119635.4,286046994.2,Y
1629119655.2,286046995.0,P
1629119675.0,286046997.7,N
1629119676.0,286046997.7,N
1629119695.8,286046999.8,N
1629119715.6,286047000.9,N
1629119735.5,286047003.9,N
1629119755.3,286047004.2,N
1629119775.2,286047005.9,N
1629119795.9,286047004.7,N
1629119815.7,286047006.6,N
1629119835.6,286047008.3,N
1629119855.4,286047009.3,N
1629119875.2,286047012.1,N
1629119895.1,286047009.4,N
1629119896.0,286047009.4,N
1629119915.8,286047008.1,N
1629119935.7,286047010.4,N
1629119955.5,286047010.7,N
1629119975.3,286047007.4,N
1629119995.2,286047004.5,N
1629120015.0,286047004.6,N
1629120015.9,286047004.6,N
1629120035.8,286047004.7,N
1629120055.6,286047005.2,N
1629120075.4,286047005.6,N
1629120095.3,286046999.8,N
1629120115.1,286047000.7,N
1629120135.8,286047000.1,N
1629120155.7,286047002.7,N
1629120175.5,286047001.5,N
1629120195.4,286047002.4,N
1629120215.2,286047001.4,N
1629120235.0,286047003.6,N
1629120235.9,286047003.6,N
1629120255.8,286047007.6,N
1629120275.6,286047004.3,N
1629120295.4,286047003.7,N
1629120315.3,286047005.5,N
1629120335.1,286047005.3,N
1629120355.9,286047003.7,N
1629120375.7,286047004.4,N
1629120395.5,286047003.2,N
1629120415.4,286047005.1,N
1629120435.2,286047006.7,N
1629120455.1,286047008.7,Y
1629120456.0,286047008.7,P
1629120475.8,286047004.0,N
1629120495.6,286047002.1,N
1629120515.5,286047003.5,N
1629120535.3,286047004.3,N
1629120555.2,286047003.2,N
1629120575.9,286047004.1,N
1629120595.7,286047001.4,N
1629120615.6,286047003.4,N
1629120635.4,286047005.6,Y
1629120655.2,286047002.8,P
1629120675.1,286047000.3,N
1629120676.0,286047000.3,N
1629120695.8,286046998.5,N
1629120715.7,286047003.1,N
1629120735.5,286047005.8,Y
1629120755.3,286047005.1,P
1629120775.2,286047007.0,P
1629120795.0,286047007.3,P
1629120795.9,286047007.3,Y
1629120815.8,286046999.7,P
1629120835.6,286046998.5,N
1629120855.4,286047000.5,N
1629120875.3,286046998.8,N
1629120895.1,286047000.7,N
1629120915.8,286046999.3,N
1629120935.7,286046998.6,N
1629120955.5,286046999.1,N
1629120975.4,286046999.4,N
1629120995.2,286046995.0,N
1629121015.0,286046997.5,N
1629121015.9,286046997.5,N
1629121035.8,286046997.8,N
1629121055.6,286046999.3,N
1629121075.4,286046998.1,N
1629121095.3,286046998.9,N
1629121115.1,286047000.4,N
1629121135.9,286047001.1,N
1629121155.7,286046999.7,N
1629121175.5,286047004.3,N
1629121195.4,286047001.1,N
1629121215.2,286047001.0,N
1629121235.0,286047001.2,N
1629121235.9,286047001.2,N
1629121255.8,286047000.9,N
1629121275.6,286046998.1,N
1629121295.5,286047000.8,N
1629121315.3,286046999.0,N
1629121335.1,286047001.2,N
1629121355.9,286046998.4,N
1629121375.7,286047000.8,N
1629121395.5,286046998.3,N
1629121415.4,286046999.1,N
1629121435.2,286046997.4,N
1629121455.1,286046999.2,N
1629121456.0,286046999.2,N
1629121475.8,286046996.8,N
1629121495.6,286046996.6,N
1629121515.5,286046998.8,N
1629121535.3,286047000.6,N
1629121555.1,286046998.9,N
1629121575.9,286046998.5,N
1629121595.7,286046999.8,N
1629121615.6,286047004.4,N
1629121635.4,286046999.8,N
1629121655.2,286047002.4,N
1629121675.1,286047003.4,N
1629121676.0,286047003.4,N
1629121695.8,286047005.9,N
1629121715.6,286047003.3,N
1629121735.5,286047002.4,N
1629121755.3,286046999.9,N
1629121775.2,286047002.8,N
1629121795.9,286047000.5,N
1629121815.7,286047000.4,N
1629121835.6,286047002.8,N
1629121855.4,286047002.1,N
1629121875.2,286046999.8,N
1629121895.1,286047002.7,N
1629121896.0,286047002.7,N
1629121915.8,286047004.3,N
1629121935.7,286047003.7,N
1629121955.5,286046999.7,N
1629121975.3,286047006.0,N
1629121995.2,286047007.4,Y
1629122015.0,286047006.7,P
1629122015.9,286047006.7,N
1629122035.7,286047007.9,P
1629122055.6,286047007.4,N
1629122075.4,286047008.8,Y
1629122095.3,286047000.2,P
1629122115.1,286047000.2,N
1629122135.8,286046998.6,N
1629122155.7,286046999.2,N
1629122175.5,286046999.1,N
1629122195.4,286046999.3,N
1629122215.2,286046999.5,N
1629122235.0,286046997.2,N
1629122235.9,286046997.2,N
1629122255.8,286046995.6,N
1629122275.6,286046993.5,N
1629122295.4,286046993.8,N
1629122315.3,286046996.3,N
1629122335.1,286046993.2,N
1629122355.9,286046994.7,N
1629122375.7,286046995.7,N
1629122395.5,286046996.0,N
